This demonstration page uses our WeatherBlox Daily Observations layout. Learn more.

38.88101, -77.10428

Hourly Observations for March 12, 2018

Temp ( °F °C ) Dew Point ( °F °C ) Humidity (%) Winds ( mph kmh ) Pressure ( in mb ) Visibility ( mi km ) Precip ( " mm )
12:52 am 00:52 Cloudy 39 3.9 26 -3.3 60 60 ENE 6 9 30.05 1018 10 16.0934 0 0
1:52 am 01:52 Mostly Cloudy 37 2.8 26 -3.3 65 65 ENE 5 7 30.04 1017 10 16.0934 0 0
2:52 am 02:52 Mostly Cloudy 36 2.2 27 -2.8 70 70 NE 8 13 30.01 1016 10 16.0934 0 0
3:52 am 03:52 Mostly Cloudy 36 2.2 27 -2.8 70 70 NE 7 11 29.99 1016 10 16.0934 0 0
4:52 am 04:52 Mostly Cloudy 35 1.7 26 -3.3 70 70 NE 9 15 29.99 1016 10 16.0934 0 0
5:52 am 05:52 Mostly Cloudy 35 1.7 26 -3.3 70 70 NE 10 17 29.98 1015 10 16.0934 0 0
6:52 am 06:52 Mostly Cloudy 35 1.7 25 -3.9 67 67 NE 12 19 29.98 1015 10 16.0934 0 0
7:52 am 07:52 Cloudy 35 1.7 24 -4.4 64 64 NE 12 19 29.97 1015 10 16.0934 0 0
8:52 am 08:52 Cloudy 36 2.2 25 -3.9 64 64 NNE 13 20 29.95 1014 10 16.0934 0 0
9:52 am 09:52 Cloudy 36 2.2 26 -3.3 67 67 NE 10 17 29.95 1014 10 16.0934 0 0
10:52 am 10:52 Cloudy 40 4.4 27 -2.8 60 60 NNE 13 20 29.93 1013 10 16.0934 0 0
11:52 am 11:52 Cloudy 40 4.4 26 -3.3 58 58 NE 10 17 29.91 1013 10 16.0934 0 0
12:52 pm 12:52 Cloudy 42 5.6 26 -3.3 53 53 NNE 10 17 29.89 1012 10 16.0934 0 0
1:52 pm 13:52 Cloudy 43 6.1 26 -3.3 51 51 NE 9 15 29.87 1011 10 16.0934 0 0
2:52 pm 14:52 Cloudy 45 7.2 24 -4.4 44 44 NNE 12 19 29.83 1010 10 16.0934 0 0
3:52 pm 15:52 Cloudy 46 7.8 24 -4.4 42 42 N 17 28 29.81 1010 10 16.0934 0 0
4:52 pm 16:52 Cloudy 44 6.7 25 -3.9 47 47 NNW 17 28 29.8 1009 10 16.0934 0 0
5:52 pm 17:52 Cloudy 43 6.1 27 -2.8 53 53 NNE 17 28 29.8 1009 10 16.0934 0 0
6:52 pm 18:52 Cloudy 41 5 29 -1.7 62 62 NNE 14 22 29.81 1010 10 16.0934 0 0
7:52 pm 19:52 Cloudy 40 4.4 28 -2.2 63 63 NNW 21 33 29.82 1010 10 16.0934 0 0
8:52 pm 20:52 Cloudy 37 2.8 31 -0.6 79 79 N 20 31 29.84 1011 10 16.0934 0 0
9:07 pm 21:07 Cloudy with Light Snow 37 2.8 31 -0.6 79 79 NNW 17 28 29.85 1011 10 16.0934 0 0.0254
9:16 pm 21:16 Cloudy with Light Snow 37 2.8 31 -0.6 79 79 N 18 30 29.83 1010 8 12.87472 0 0.0254
9:52 pm 21:52 Cloudy with Light Snow 36 2.2 33 0.6 89 89 NNW 16 26 29.84 1011 8 12.87472 0 0.0254
10:17 pm 22:17 Cloudy with Light Snow 36 2.2 32 0 86 86 NNW 17 28 29.83 1010 8 12.87472 0.01 0.254
10:40 pm 22:40 Cloudy with Light Snow 36 2.2 33 0.6 89 89 N 16 26 29.83 1010 9 14.48406 0.01 0.254
10:52 pm 22:52 Cloudy with Light Snow 36 2.2 32 0 86 86 N 15 24 29.83 1010 9 14.48406 0.01 0.254
11:37 pm 23:37 Cloudy 36 2.2 32 0 86 86 NNW 14 22 29.83 1010 9 14.48406 0 0.0254
11:52 pm 23:52 Cloudy 36 2.2 32 0 86 86 N 15 24 29.81 1010 10 16.0934 0 0.0254

Powered by AerisWeather